Location: Newark
(49.3000°N, 9.4667°E)
Time: 13:26:01
(UTC+00:00)

Transit 2A Rocket - Pass Details

Date: 25 May 2019
Orbit: 586 x 917 km, 66.7° (Epoch: 23 June)

Event Time Altitude Azimuth Distance (km) Brightness Sun altitude
Rises 23:36:57 0° 324° (NW) 3,481 9.2 -19.6°
Reaches altitude 10° 23:39:41 10° 332° (NNW) 2,500 8.5 -19.5°
Maximum altitude 23:45:08 41° 42° (NE) 1,162 6.3 -19.4°
Drops below altitude 10° 23:50:06 10° 112° (ESE) 2,286 7.3 -19.3°
Enters shadow 23:52:03 - 119° (ESE) 2,986 7.9 -19.3°
